Home   Weather   Bat Yam   Past weeks

Flag for Israel Past Weather in Bat Yam, Israel — Yesterday and Last 2 Weeks

79 °F

Passing clouds.

Feels Like: 80 °F
Forecast: 75 / 81 °F
Wind: 5 mph from Southeast

Location: Dov Airport

Current Time: Oct 28, 2016 at 9:23:18 AM

Latest Report: Oct 28, 2016 at 8:50 AM

Visibility: N/A

Pressure: 29.98 "Hg

Humidity: 48%

Dew Point: 57 °F

Location of Bat YamLocation

Past Weather in Bat Yam — Graph


Bat Yam Temperature Yesterday

Maximum temperature yesterday: 86 °F (at 1:50 PM)
Minimum temperature yesterday: 66 °F (at 6:50 AM)
Average temperature yesterday: 76 °F

High & Low Weather Summary for the Past Weeks

High86 °F (Oct 16, 3:50 PM)94% (Oct 26, 5:50 AM)30.07 "Hg (Oct 26, 5:50 AM)
Low64 °F (Oct 26, 5:50 AM)37% (Oct 14, 9:50 AM)29.83 "Hg (Oct 25, 4:50 PM)
Average78 °F62%29.94 "Hg
* Reported Oct 13 7:50 AM — Oct 28 7:50 AM, Bat Yam, Weather by CustomWeather, © 2016

Note: Actual official high and low records may vary slightly from our data, if they occured in-between our weather recording intervals... More about our weather records


Bat Yam Weather History for the Previous 24 Hours

Scroll right to see more
Time TempWeatherWind HumidityBarometerVisibility
7:50 AM
Fri, Oct 28
70 °FSunny.5 mph69%29.98 "Hg10 mi
6:50 AM68 °FClear.3 mph78%29.95 "Hg10 mi
5:50 AM72 °FClear.2 mph65%29.95 "Hg10 mi
11:50 PM
Thu, Oct 27
73 °FPassing clouds.8 mph65%29.98 "HgN/A
10:50 PM73 °FClear.3 mph61%29.95 "Hg10 mi
9:50 PM75 °FPassing clouds.8 mph54%29.98 "HgN/A
8:50 PM73 °FClear.13 mph69%29.98 "Hg10 mi
7:50 PM72 °FPassing clouds.7 mph78%29.95 "HgN/A
6:50 PM75 °FThunderstorms. Passing clouds.15 mph65%29.95 "Hg4 mi
5:50 PM79 °FRain. Clear.9 mph84%29.89 "HgN/A
4:50 PM81 °FThunderstorms. Passing clouds.10 mph79%29.89 "HgN/A
3:50 PM84 °FSunny.6 mph40%29.89 "Hg10 mi
3:04 PM82 °FSunny.8 mph58%29.89 "Hg10 mi
1:50 PM86 °FSunny.8 mph46%29.89 "Hg10 mi
12:50 PM84 °FSunny.7 mph45%29.89 "Hg10 mi
11:50 AM84 °FSunny.5 mph40%29.92 "Hg10 mi
10:50 AM81 °FSunny.5 mph48%29.92 "Hg10 mi
9:50 AM81 °FSunny.5 mph42%29.92 "Hg10 mi
Weather by CustomWeather, © 2016

See weather overviewHow to use our weather pages